AirNav   Pilot Hours Calculator
 
 388 users online  

FL14 John Hopkins All Childrens Hospital Heliport
St. Petersburg, Florida, USA

GOING TO ST. PETERSBURG?


FAA INFORMATION EFFECTIVE 26 MARCH 2020

Location

FAA Identifier: FL14
Lat/Long: 27-45-54.0000N 082-38-26.0000W
27-45.900000N 082-38.433333W
27.7650000,-82.6405556
(estimated)
Elevation: 177 ft. / 54 m (estimated)
From city: 1 mile SW of ST. PETERSBURG, FL
Time zone: UTC -4 (UTC -5 during Standard Time)
Zip code: 33701

Heliport Operations

Heliport use: Private use. Permission required prior to landing
Activation date: 04/2015
Control tower: no
ARTCC: MIAMI CENTER
FSS: SAINT PETERSBURG FLIGHT SERVICE STATION
Attendance: CONTINUOUS
Wind indicator: lighted
Segmented circle: no

Heliport Communications

WX ASOS at SPG (0.7 nm E): 118.875 (727-821-4334)
WX ASOS at PIE (9 nm N): PHONE 727-531-3456
WX AWOS-3 at TPF (14 nm NE): 118.925 (813-251-6824)
WX ASOS at TPA (14 nm NE): PHONE 813-873-7228
WX AWOS-3P at CLW (14 nm NW): 119.225 (727-449-2184)

Nearby radio navigation aids

VOR radial/distance  VOR name  Freq  Var
PIEr170/8.9ST PETERSBURG VORTAC116.4005W
SRQr354/21.9SARASOTA VOR/DME117.0005W
LALr247/35.8LAKELAND VORTAC116.0001E

 
NDB name  Hdg/Dist  Freq  Var  ID
CAPOK171/14.236005WPI .--. ..

Heliport Services

Runway Information

Helipad H1

Dimensions: 54 x 54 ft. / 16 x 16 m
Surface: ROOF/TOP
Runway edge lights: PERI
Traffic pattern: leftleft

Heliport Ownership and Management from official FAA records

Ownership: Privately-owned
Owner: JOHN HOPKINS ALL CHILDRENS HOSPITAL
501 6TH AVE SOUTH
ST. PETERSBURG, FL 33701
Phone 727-767-4446
Manager: LARRY GREEN
501 6TH AVE SOUTH
ST. PETERSBURG, FL 33701
Phone 727-767-4446
ADDNL CTC: RICHARD GERGER 727-767-8899 RGERGER@JHMI.EDU

Additional Remarks

MEDICAL USE
HELIPAD STRENGTH MARKED AT 25,000 LBS BUT CAN ACCOMODATE UP TO 30,000 LBS
STANDARD HELIPAD MARKINGS - GOOD CONDITION
CHURCH SPIRE 250 FT NORTHEAST
FINAL APCH AND TKOF AREA 97.2 X 97.2 FT
FOR CD CTC TAMPA APCH AT 813-878-2528

Instrument Procedures

There are no published instrument procedures at FL14.

Some nearby airports with instrument procedures:

KSPG - Albert Whitted Airport (1 nm E)
KMCF - MacDill Air Force Base (8 nm NE)
KPIE - St Pete-Clearwater International Airport (9 nm N)
KTPF - Peter O Knight Airport (14 nm NE)
KTPA - Tampa International Airport (14 nm NE)
KCLW - Clearwater Air Park (14 nm NW)
 
Loc | Ops | Rwys | IFR | FBO | Links
Com | Nav | Svcs | Stats | Notes
Aerial photo
No photo
 
Airport distance calculator
Flying to John Hopkins All Childrens Hospital Heliport? Find the distance to fly.

From to FL14

Sunrise and sunset
Times for 06-Apr-2020
 Local
(UTC-4)
 Zulu
(UTC)
Morning civil twilight06:5210:52
Sunrise07:1511:15
Sunset19:5023:50
Evening civil twilight20:1400:14

Current date and time
Zulu (UTC)  06-Apr-2020 10:56:03
Local (UTC-4)  06-Apr-2020 06:56:03
 
METAR
KSPG 060953Z AUTO 06010KT 8SM OVC009 20/18 A3000 RMK AO2 SLP158 T02000183
KMCF 
8nm NE 
061041Z AUTO 05008KT 10SM OVC007 19/17 A3002 RMK AO2 CIG 005V007 CIG 005 RWY04 SLP169 FZRANO $
KPIE 
9nm N 
060953Z 06007KT 10SM OVC008 19/17 A3002 RMK AO2 SLP164 T01940172
KTPA 
13nm NE 
061030Z VRB04KT 3SM BR SCT007 OVC013 18/16 A3004 RMK AO2 SFC VIS 10 T01830156
KTPF 
14nm NE 
061035Z AUTO 06006KT 10SM SCT007 OVC014 A3004 RMK AO2
KCLW 
14nm NW 
061035Z AUTO 07004KT 7SM OVC005 17/16 A3003 RMK AO2
TAF
KMCF 
8nm NE 
060134Z 0601/0707 04006KT 9999 OVC006 QNH3002INS BECMG 0602/0603 04006KT 8000 BR OVC005 QNH3006INS BECMG 0608/0609 VRB06KT 8000 BR SCT005 QNH3001INS BECMG 0612/0613 05006KT 9999 NSW BKN005 QNH3004INS BECMG 0615/0616 07012KT 9999 FEW005 QNH3011INS BECMG 0617/0618 08012KT 9999 SCT030 QNH3007INS BECMG 0620/0621 VRB06KT 9999 BKN030 QNH3003INS TX27/0619Z TN17/0611Z LAST NO AMDS AFT 0601 NEXT 0706
KPIE 
9nm N 
060532Z 0606/0706 07008KT P6SM SCT015 OVC035 TEMPO 0606/0610 BKN015 FM061700 08006KT P6SM SCT025 BKN050 FM070300 09010KT P6SM SCT050 BKN100
KTPA 
13nm NE 
060901Z 0609/0712 06005KT P6SM SCT007 SCT015 OVC035 TEMPO 0609/0611 BKN007 FM061700 08006KT P6SM SCT025 BKN050 FM070300 09006KT P6SM SCT050 BKN100
NOTAMs
Click for the latest NOTAMs
NOTAMs are issued by the DoD/FAA and will open in a separate window not controlled by AirNav.

 

 
 

Would you like to see your business listed on this page?

 If your business provides an interesting product or service to pilots, flight crews, aircraft, or users of the John Hopkins All Childrens Hospital Heliport, you should consider listing it here.  To start the listing process, click on the button below
 
Add a business
 

Other Pages about John Hopkins All Childrens Hospital Heliport

Update a link
 
Copyright © AirNav, LLC. All rights reserved. Privacy Policy  Contact